• MPC Preparation (Info)

  • MPEC 2014-S30 : 2008 FS6

    The following Minor Planet Electronic Circular may be linked-to from your own Web pages, but must not otherwise be redistributed electronically.

    A form allowing access to any MPEC is at the bottom of this page.


    Read MPEC 2014-S29 Read MPEC 2014-S31


    M.P.E.C. 2014-S30                                Issued 2014 Sept. 21, 10:37 UT
    
         The Minor Planet Electronic Circulars contain information on unusual
             minor planets and routine data on comets.  They are published
       on behalf of Commission 20 of the International Astronomical Union by the
              Minor Planet Center, Smithsonian Astrophysical Observatory,
                              Cambridge, MA 02138, U.S.A.
    
                 Prepared using the Tamkin Foundation Computer Network
    
                                  MPC@CFA.HARVARD.EDU
                URL https://www.minorplanetcenter.net/    ISSN 1523-6714
    
                                       2008 FS6
    
                               Revision to MPEC 2008-F59
    
    Additional Observations:
         K08F06S  C2014 09 20.43491 00 35 08.778-03 23 56.28         21.6 wLES030F51
         K08F06S  C2014 09 20.44709 00 35 07.142-03 23 57.78         21.6 wLES030F51
         K08F06S  C2014 09 20.45925 00 35 05.515-03 23 59.36         21.9 wLES030F51
         K08F06S  C2014 09 20.47151 00 35 03.857-03 24 01.00         21.5 wLES030F51
         K08F06S KC2014 09 21.30627 00 33 18.90 -03 25 51.2          21.1 RoES030291
         K08F06S KC2014 09 21.30887 00 33 18.53 -03 25 51.5          21.3 RoES030291
         K08F06S KC2014 09 21.31148 00 33 18.18 -03 25 52.0          21.6 RoES030291
    
    Observer details:
    291 LPL/Spacewatch II.  Observer R. A. Mastaler.  1.8-m f/2.7 reflector + CCD.
    F51 Pan-STARRS 1, Haleakala.  Observers N. Primak, A. Schultz, T. Goggia,
        M. Willman.  Measurers B. Bolin, K. Chambers, S. Chastel, L. Denneau,
        H. Flewelling, M. Huber, E. Magnier, E. Schunova, R. Wainscoat, C. Waters.
        1.8-m Ritchey-Chretien + CCD.
    
    First and last observations above in comparison with prediction:
    Residuals in seconds of arc (or two decimals in degrees), reference and Delta-T
    140920 F51 0.22+ 0.12+    140921 291 0.22+ 0.12+    MPO141918   -0.12 day
    
    Orbital elements:
    2008 FS6                                                 Earth MOID = 0.1051 AU
    Epoch 2014 Dec. 9.0 TT = JDT 2457000.5                  MPC
    M 167.88689              (2000.0)            P               Q
    n   0.66932721     Peri.  210.05652     -0.62875876     +0.77692764
    a   1.2943262      Node    21.03872     -0.69428533     -0.54217602
    e   0.1468196      Incl.    5.16840     -0.35018611     -0.32004470
    P   1.47           H   22.3           G   0.15           U   1
    Residuals in seconds of arc
    080329 691  0.2-  0.1-    080401 291  0.0   0.2+    080412 448  0.2-  0.6-
    080329 691  0.0   0.1+    080403 F85  0.0   0.4+    080412 448  0.4+  0.0
    080329 691  0.1-  0.3-    080403 F85  0.2+  0.4+    080412 448  0.0   0.2+
    080329 291  0.6-  0.2-    080404 673  0.6+  0.1+    080418 448  1.1-  0.3-
    080329 291  0.0   0.2-    080404 673  0.5+  0.3+    080418 448  0.4-  0.1-
    080329 291  0.1+  0.1-    080404 673  0.6+  0.6+    080418 448  0.5+  0.0
    080330 B21  1.0+  0.1+    080404 673  0.6+  0.4+    080505 F85  0.1-  0.1-
    080330 B21  0.7+  0.1+    080405 448  0.2-  0.2+    080505 F85  0.2-  0.1-
    080330 B21  0.9+  0.1-    080405 448  0.5-  0.2-    080508 E12  0.0   0.4+
    080330 118  0.2+  0.2-    080405 448  0.6-  0.1-    080508 E12  0.4-  0.5+
    080330 118  0.0   0.1+    080405 691  0.2-  0.1+    080508 E12  0.0   0.5+
    080330 291  0.1-  0.1+    080405 691  0.0   0.2+    080508 E12  0.9-  0.4+
    080330 291  0.2-  0.3+    080405 691  0.0   0.2-    080530 807  0.4+  0.3-
    080330 651  0.3+  0.1+    080405 291  0.2+  0.4-    080530 807  0.5+  0.1+
    080330 651  0.6+  0.4+    080405 291  0.4-  0.2-    080530 807  0.4+  0.1-
    080330 291  0.1+  0.4-    080405 291  0.0   0.3-    080530 807  0.4+  0.2-
    080330 651  0.5+  0.2+    080406 691  0.1-  0.1+    080530 807  0.3-  0.4-
    080331 291  0.1+  0.1+    080406 691  0.0   0.0     140920 F51  0.1-  0.1-
    080331 291  0.1-  0.3+    080406 691  1.2+  0.7+    140920 F51  0.0   0.0
    080331 291  0.0   0.4+    080411 291  0.2-  0.0     140920 F51  0.1+  0.0
    080401 691  0.1-  0.0     080411 291  0.3-  0.3-    140920 F51  0.0   0.0
    080401 691  0.0   0.1-    080411 291  0.3-  0.2-    140921 291  0.0   0.3+
    080401 691  0.1-  0.0     080411 F85  0.1-  0.5-    140921 291  0.3-  0.3+
    080401 291 (2.1+  0.4+)   080411 F85  0.2-  0.2-    140921 291  0.3-  0.2+
    080401 291  0.0   0.4+    080411 F85  0.3+  0.6-
    
    Ephemeris:
    2008 FS6                 a,e,i = 1.29, 0.15, 5                   q = 1.1043
    Date    TT    R. A. (2000) Decl.     Delta      r     Elong.  Phase     V
    2014 08 22    01 16 58.9 -02 40 35   0.4338  1.3374   131.1    34.7    22.6
    ...
    2014 09 06    01 01 56.7 -02 51 06   0.4017  1.3677   148.9    22.4    22.1
    ...
    2014 09 14    00 48 08.8 -03 08 44   0.3946  1.3828   159.6    14.7    21.8
    ...
    2014 09 20    00 36 03.3 -03 22 50   0.3956  1.3936   167.8     8.7    21.6
    2014 09 21    00 33 57.5 -03 25 00   0.3963  1.3954   169.1     7.8    21.6
    2014 09 22    00 31 51.0 -03 27 04   0.3972  1.3971   170.4     6.9    21.5
    ...
    2014 09 28    00 19 12.9 -03 36 46   0.4064  1.4072   174.5     3.9    21.4
    ...
    2014 10 06    00 03 37.8 -03 39 15   0.4285  1.4199   166.4     9.5    21.8
    ...
    2014 10 21    23 43 12.3 -03 03 59   0.4978  1.4408   147.6    21.7    22.6
    
    A. U. Tomatic                (C) Copyright 2014 MPC           M.P.E.C. 2014-S30
    

    Read MPEC 2014-S29 Read MPEC 2014-S31


    MPEC number:

    Enter an MPEC number in one of the following forms:

    • 1997-B01 (the full form)
    • J97B01 (the packed version of the full form)
    • B01 (the abbreviated form)